Location: Warszawa
(52.2500°N, 21.0000°E)
Time: 00:03:24
(UTC+02:00)

AO-27 - Pass Details

Date: 25 April 2024
Orbit: 783 x 797 km, 98.8° (Epoch: 26 May)

Event Time Altitude Azimuth Distance (km) Brightness Sun altitude
Exits shadow 21:17:40 - 180° (S) 3,027 10.3 -11.8°
Reaches altitude 10° 21:19:23 10° 185° (S) 2,364 9.8 -12.0°
Maximum altitude 21:24:27 49° 260° (W) 1,021 8.5 -12.6°
Drops below altitude 10° 21:29:33 10° 336° (NNW) 2,380 11.3 -13.2°
Sets 21:31:58 0° 341° (NNW) 3,314 12.1 -13.4°
